| time (UTC) | temp F | wind direction | speed MPH | gust MPH | rain 1hr in | rain 24hr in | rain mn in | humidity % | barometer mb |
| 20260831210630 | 76 | 205 | 1.0 | 8.0 | 0.00 | 0.00 | 0.00 | 44 | 1013.5 |
| 20260831210130 | 76 | 252 | 0.0 | 8.0 | 0.00 | 0.00 | 0.00 | 45 | 1013.6 |
| 20260831205630 | 76 | 255 | 0.0 | 8.0 | 0.00 | 0.00 | 0.00 | 44 | 1013.6 |
| 20260831205500 | 76 | 174 | 1.0 | 4.0 | 0.00 | 0.00 | 0.00 | 44 | 1013.7 |
| 20260831204631 | 76 | 97 | 1.0 | 4.0 | 0.00 | 0.00 | 0.00 | 45 | 1013.8 |
| 20260831204130 | 76 | 67 | 0.0 | 4.0 | 0.00 | 0.00 | 0.00 | 44 | 1013.9 |
| 20260831203629 | 75 | 197 | 0.0 | 4.0 | 0.00 | 0.00 | 0.00 | 46 | 1014.0 |
| 20260831203130 | 74 | 210 | 0.0 | 5.0 | 0.00 | 0.00 | 0.00 | 46 | 1014.1 |
| 20260831202629 | 74 | 164 | 0.0 | 5.0 | 0.00 | 0.00 | 0.00 | 46 | 1014.2 |
| 20260831202132 | 74 | 138 | 1.0 | 5.0 | 0.00 | 0.00 | 0.00 | 45 | 1014.1 |
| 20260831201630 | 74 | 69 | 1.0 | 5.0 | 0.00 | 0.00 | 0.00 | 45 | 1014.1 |
| 20260831201451 | 74 | 112 | 1.0 | 4.0 | 0.00 | 0.00 | 0.00 | 45 | 1014.2 |
| 20260831200629 | 75 | 205 | 0.0 | 4.0 | 0.00 | 0.00 | 0.00 | 46 | 1014.5 |
| 20260831200129 | 74 | 201 | 0.0 | 4.0 | 0.00 | 0.00 | 0.00 | 47 | 1014.5 |
| 20260831195629 | 74 | 216 | 0.0 | 2.0 | 0.00 | 0.00 | 0.00 | 48 | 1014.6 |
| 20260831195132 | 74 | 218 | 0.0 | 1.0 | 0.00 | 0.00 | 0.00 | 48 | 1014.7 |
| 20260831194955 | 73 | 247 | 0.0 | 1.0 | 0.00 | 0.00 | 0.00 | 50 | 1014.7 |
| 20260831194133 | 73 | 247 | 0.0 | 5.0 | 0.00 | 0.00 | 0.00 | 50 | 1014.8 |
| 20260831193631 | 73 | 247 | 1.0 | 5.0 | 0.00 | 0.00 | 0.00 | 51 | 1015.0 |
| 20260831193131 | 72 | 95 | 1.0 | 7.0 | 0.00 | 0.00 | 0.00 | 53 | 1015.1 |
| 20260831192635 | 72 | 63 | 1.0 | 7.0 | 0.00 | 0.00 | 0.00 | 50 | 1015.1 |
| 20260831192337 | 72 | 349 | 0.0 | 2.0 | 0.00 | 0.00 | 0.00 | 51 | 1015.3 |
| 20260831192242 | 72 | 8 | 0.0 | 3.0 | 0.00 | 0.00 | 0.00 | 53 | 1015.3 |
| 20260831191132 | 71 | 349 | 0.0 | 3.0 | 0.00 | 0.00 | 0.00 | 52 | 1015.4 |
| 20260831190633 | 71 | 348 | 0.0 | 3.0 | 0.00 | 0.00 | 0.00 | 53 | 1015.4 |
| 20260831190132 | 70 | 349 | 0.0 | 3.0 | 0.00 | 0.00 | 0.00 | 53 | 1015.6 |
| 20260831185950 | 70 | 343 | 0.0 | 7.0 | 0.00 | 0.00 | 0.00 | 55 | 1015.5 |
| 20260831185132 | 70 | 297 | 1.0 | 7.0 | 0.00 | 0.00 | 0.00 | 55 | 1015.7 |
| 20260831184633 | 70 | 64 | 1.0 | 7.0 | 0.00 | 0.00 | 0.00 | 55 | 1015.8 |
| 20260831184131 | 70 | 163 | 1.0 | 7.0 | 0.00 | 0.00 | 0.00 | 55 | 1015.8 |
| 20260831183633 | 70 | 222 | 0.0 | 3.0 | 0.00 | 0.00 | 0.00 | 57 | 1015.9 |
| 20260831183452 | 69 | 216 | 0.0 | 3.0 | 0.00 | 0.00 | 0.00 | 58 | 1016.1 |
| 20260831182632 | 69 | 216 | 0.0 | 3.0 | 0.00 | 0.00 | 0.00 | 59 | 1016.1 |
| 20260831182450 | 69 | 214 | 0.0 | 3.0 | 0.00 | 0.00 | 0.00 | 59 | 1016.3 |
| 20260831181634 | 69 | 204 | 0.0 | 3.0 | 0.00 | 0.00 | 0.00 | 58 | 1016.3 |
| 20260831181131 | 69 | 204 | 0.0 | 3.0 | 0.00 | 0.00 | 0.00 | 59 | 1016.3 |
| 20260831180635 | 68 | 204 | 0.0 | 3.0 | 0.00 | 0.00 | 0.00 | 59 | 1016.4 |
| 20260831180131 | 68 | 204 | 0.0 | 3.0 | 0.00 | 0.00 | 0.00 | 61 | 1016.4 |
| 20260831175957 | 67 | 204 | 0.0 | 3.0 | 0.00 | 0.00 | 0.00 | 60 | 1016.4 |
| 20260831175134 | 67 | 258 | 0.0 | 3.0 | 0.00 | 0.00 | 0.00 | 61 | 1016.5 |
| 20260831174634 | 66 | 272 | 0.0 | 3.0 | 0.00 | 0.00 | 0.00 | 62 | 1016.4 |
| 20260831174454 | 66 | 275 | 0.0 | 3.0 | 0.00 | 0.00 | 0.00 | 63 | 1016.4 |
| 20260831173634 | 66 | 278 | 0.0 | 2.0 | 0.00 | 0.00 | 0.00 | 63 | 1016.6 |
| 20260831173448 | 66 | 278 | 0.0 | 3.0 | 0.00 | 0.00 | 0.00 | 63 | 1016.6 |
| 20260831172632 | 66 | 279 | 0.0 | 3.0 | 0.00 | 0.00 | 0.00 | 64 | 1016.7 |
| 20260831172451 | 65 | 279 | 0.0 | 4.0 | 0.00 | 0.00 | 0.00 | 64 | 1016.7 |
| 20260831171633 | 66 | 279 | 0.0 | 4.0 | 0.00 | 0.00 | 0.00 | 64 | 1016.8 |
| 20260831171134 | 65 | 279 | 0.0 | 4.0 | 0.00 | 0.00 | 0.00 | 65 | 1016.8 |
| 20260831170954 | 65 | 278 | 0.0 | 4.0 | 0.00 | 0.00 | 0.00 | 68 | 1016.9 |
| 20260831170131 | 65 | 278 | 0.0 | 6.0 | 0.00 | 0.00 | 0.00 | 67 | 1017.0 |
| 20260831165633 | 65 | 278 | 0.0 | 6.0 | 0.00 | 0.00 | 0.00 | 67 | 1017.0 |
| 20260831165141 | 65 | 283 | 0.0 | 3.0 | 0.00 | 0.00 | 0.00 | 67 | 1017.1 |
| 20260831164636 | 65 | 283 | 0.0 | 3.0 | 0.00 | 0.00 | 0.00 | 67 | 1017.1 |
| 20260831164130 | 65 | 283 | 0.0 | 2.0 | 0.00 | 0.00 | 0.00 | 68 | 1017.2 |
| 20260831163954 | 65 | 283 | 0.0 | 1.0 | 0.00 | 0.00 | 0.00 | 68 | 1017.2 |
| 20260831163448 | 65 | 283 | 0.0 | 2.0 | 0.00 | 0.00 | 0.00 | 70 | 1017.2 |
| 20260831162629 | 65 | 283 | 0.0 | 2.0 | 0.00 | 0.00 | 0.00 | 69 | 1017.3 |
| 20260831162132 | 64 | 283 | 0.0 | 2.0 | 0.00 | 0.00 | 0.00 | 68 | 1017.3 |
| 20260831161629 | 64 | 283 | 0.0 | 2.0 | 0.00 | 0.00 | 0.00 | 71 | 1017.3 |
| 20260831161444 | 63 | 283 | 0.0 | 2.0 | 0.00 | 0.00 | 0.00 | 72 | 1017.3 |
| 20260831160630 | 63 | 283 | 0.0 | 2.0 | 0.00 | 0.00 | 0.00 | 72 | 1017.3 |
| 20260831160131 | 63 | 284 | 0.0 | 2.0 | 0.00 | 0.00 | 0.00 | 72 | 1017.3 |
| 20260831155946 | 63 | 290 | 0.0 | 1.0 | 0.00 | 0.00 | 0.00 | 72 | 1017.3 |
| 20260831155128 | 63 | 290 | 0.0 | 1.0 | 0.00 | 0.00 | 0.00 | 71 | 1017.3 |
| 20260831154946 | 63 | 291 | 0.0 | 1.0 | 0.00 | 0.00 | 0.00 | 71 | 1017.4 |
| 20260831154130 | 63 | 290 | 0.0 | 1.0 | 0.00 | 0.00 | 0.00 | 72 | 1017.5 |
| 20260831153630 | 62 | 290 | 0.0 | 0.0 | 0.00 | 0.00 | 0.00 | 73 | 1017.4 |
| 20260831153130 | 62 | 291 | 0.0 | 0.0 | 0.00 | 0.00 | 0.00 | 76 | 1017.3 |
| 20260831152628 | 61 | 290 | 0.0 | 0.0 | 0.00 | 0.00 | 0.00 | 77 | 1017.3 |
| 20260831152130 | 61 | 290 | 0.0 | 0.0 | 0.00 | 0.00 | 0.00 | 77 | 1017.4 |
| 20260831151630 | 60 | 290 | 0.0 | 0.0 | 0.00 | 0.00 | 0.00 | 77 | 1017.4 |
| 20260831151130 | 60 | 290 | 0.0 | 0.0 | 0.00 | 0.00 | 0.00 | 78 | 1017.3 |
| 20260831150630 | 59 | 290 | 0.0 | 0.0 | 0.00 | 0.00 | 0.00 | 81 | 1017.3 |
| 20260831150129 | 58 | 291 | 0.0 | 0.0 | 0.00 | 0.00 | 0.00 | 82 | 1017.4 |
| 20260831145628 | 57 | 290 | 0.0 | 0.0 | 0.00 | 0.00 | 0.00 | 83 | 1017.5 |
| 20260831145132 | 56 | 290 | 0.0 | 0.0 | 0.00 | 0.00 | 0.00 | 84 | 1017.4 |
| 20260831144630 | 56 | 291 | 0.0 | 0.0 | 0.00 | 0.00 | 0.00 | 85 | 1017.5 |
| 20260831144130 | 56 | 290 | 0.0 | 0.0 | 0.00 | 0.00 | 0.00 | 85 | 1017.3 |
| 20260831143630 | 55 | 290 | 0.0 | 0.0 | 0.00 | 0.00 | 0.00 | 85 | 1017.3 |
| 20260831143626 | 55 | 290 | 0.0 | 0.0 | 0.00 | 0.00 | 0.00 | 85 | 1017.3 |
| 20260831143620 | 55 | 291 | 0.0 | 0.0 | 0.00 | 0.00 | 0.00 | 85 | 1017.3 |
| 20260831142128 | 55 | 290 | 0.0 | 0.0 | 0.00 | 0.00 | 0.00 | 85 | 1017.2 |
| 20260831141629 | 55 | 291 | 0.0 | 0.0 | 0.00 | 0.00 | 0.00 | 85 | 1017.2 |
| 20260831141131 | 55 | 290 | 0.0 | 0.0 | 0.00 | 0.00 | 0.00 | 85 | 1017.1 |
| 20260831140629 | 55 | 290 | 0.0 | 0.0 | 0.00 | 0.00 | 0.00 | 86 | 1017.1 |
| 20260831140132 | 55 | 291 | 0.0 | 0.0 | 0.00 | 0.00 | 0.00 | 86 | 1017.0 |
| 20260831135632 | 55 | 290 | 0.0 | 0.0 | 0.00 | 0.00 | 0.00 | 86 | 1017.0 |
| 20260831135134 | 55 | 290 | 0.0 | 0.0 | 0.00 | 0.00 | 0.00 | 86 | 1017.0 |
| 20260831135009 | 55 | 290 | 0.0 | 0.0 | 0.00 | 0.00 | 0.00 | 86 | 1017.0 |
| 20260831134132 | 55 | 290 | 0.0 | 0.0 | 0.00 | 0.00 | 0.00 | 86 | 1017.0 |
| 20260831133634 | 55 | 290 | 0.0 | 0.0 | 0.00 | 0.01 | 0.00 | 86 | 1016.9 |
| 20260831133132 | 55 | 290 | 0.0 | 0.0 | 0.00 | 0.01 | 0.00 | 86 | 1016.9 |
| 20260831132631 | 55 | 290 | 0.0 | 0.0 | 0.00 | 0.01 | 0.00 | 85 | 1016.8 |
| 20260831132132 | 56 | 290 | 0.0 | 0.0 | 0.00 | 0.01 | 0.00 | 85 | 1016.7 |
| 20260831131633 | 56 | 290 | 0.0 | 0.0 | 0.00 | 0.01 | 0.00 | 84 | 1016.7 |
| 20260831131350 | 56 | 290 | 0.0 | 0.0 | 0.00 | 0.02 | 0.00 | 84 | 1016.6 |
| 20260831130631 | 56 | 290 | 0.0 | 0.0 | 0.00 | 0.02 | 0.00 | 84 | 1016.5 |
| 20260831130132 | 56 | 290 | 0.0 | 0.0 | 0.00 | 0.02 | 0.00 | 83 | 1016.4 |
| 20260831125631 | 56 | 290 | 0.0 | 0.0 | 0.00 | 0.02 | 0.00 | 83 | 1016.5 |
| 20260831125132 | 56 | 290 | 0.0 | 0.0 | 0.00 | 0.02 | 0.00 | 83 | 1016.5 |
| 20260831124950 | 57 | 290 | 0.0 | 0.0 | 0.00 | 0.02 | 0.00 | 83 | 1016.6 |
| 20260831124449 | 57 | 290 | 0.0 | 0.0 | 0.00 | 0.02 | 0.00 | 82 | 1016.5 |
| 20260831123635 | 57 | 0.0 | 0.0 | 0.00 | 0.03 | 0.00 | 82 | 1016.4 | |
| 20260831123131 | 57 | 0.0 | 0.0 | 0.00 | 0.03 | 0.00 | 82 | 1016.4 | |
| 20260831122952 | 57 | 0.0 | 0.0 | 0.00 | 0.04 | 0.00 | 82 | 1016.4 | |
| 20260831122948 | 57 | 0.0 | 0.0 | 0.00 | 0.04 | 0.00 | 82 | 1016.4 | |
| 20260831121614 | 57 | 0.0 | 0.0 | 0.00 | 0.04 | 0.00 | 82 | 1016.4 | |
| 20260831121112 | 57 | 290 | 0.0 | 0.0 | 0.00 | 0.04 | 0.00 | 82 | 1016.4 |
| 20260831120916 | 57 | 290 | 0.0 | 0.0 | 0.00 | 0.04 | 0.00 | 82 | 1016.4 |
| 20260831115920 | 57 | 290 | 0.0 | 0.0 | 0.00 | 0.04 | 0.00 | 82 | 1016.5 |
| 20260831115237 | 57 | 290 | 0.0 | 0.0 | 0.00 | 0.04 | 0.00 | 82 | 1016.6 |
| 20260831115158 | 57 | 290 | 0.0 | 0.0 | 0.00 | 0.04 | 0.00 | 82 | 1016.5 |
| 20260831114421 | 57 | 290 | 0.0 | 0.0 | 0.00 | 0.05 | 0.00 | 81 | 1016.6 |
| 20260831113601 | 58 | 290 | 0.0 | 0.0 | 0.00 | 0.05 | 0.00 | 81 | 1016.6 |
| 20260831113107 | 58 | 290 | 0.0 | 0.0 | 0.00 | 0.05 | 0.00 | 81 | 1016.5 |
| 20260831112606 | 58 | 290 | 0.0 | 3.0 | 0.00 | 0.05 | 0.00 | 81 | 1016.4 |
| 20260831112103 | 58 | 290 | 0.0 | 3.0 | 0.00 | 0.05 | 0.00 | 81 | 1016.4 |
| 20260831111606 | 58 | 290 | 0.0 | 3.0 | 0.00 | 0.05 | 0.00 | 81 | 1016.4 |
| 20260831111105 | 58 | 290 | 0.0 | 3.0 | 0.00 | 0.05 | 0.00 | 81 | 1016.5 |
| 20260831110605 | 58 | 290 | 0.0 | 3.0 | 0.00 | 0.05 | 0.00 | 81 | 1016.5 |
| 20260831110426 | 58 | 290 | 0.0 | 3.0 | 0.00 | 0.05 | 0.00 | 81 | 1016.4 |
| 20260831105604 | 58 | 290 | 0.0 | 4.0 | 0.00 | 0.05 | 0.00 | 81 | 1016.3 |
| 20260831105104 | 58 | 290 | 0.0 | 4.0 | 0.00 | 0.05 | 0.00 | 80 | 1016.3 |
| 20260831104602 | 58 | 287 | 0.0 | 6.0 | 0.00 | 0.05 | 0.00 | 80 | 1016.3 |
| 20260831104101 | 58 | 288 | 0.0 | 6.0 | 0.00 | 0.05 | 0.00 | 80 | 1016.2 |
| 20260831103600 | 58 | 297 | 0.0 | 3.0 | 0.00 | 0.05 | 0.00 | 80 | 1016.2 |
| 20260831103105 | 58 | 297 | 0.0 | 3.0 | 0.00 | 0.05 | 0.00 | 79 | 1016.1 |
| 20260831102608 | 58 | 297 | 0.0 | 2.0 | 0.00 | 0.05 | 0.00 | 79 | 1015.9 |
| 20260831102104 | 58 | 297 | 0.0 | 3.0 | 0.00 | 0.05 | 0.00 | 78 | 1015.9 |
| 20260831101604 | 58 | 297 | 0.0 | 3.0 | 0.00 | 0.05 | 0.00 | 78 | 1015.8 |
| 20260831101424 | 58 | 301 | 0.0 | 2.0 | 0.00 | 0.05 | 0.00 | 78 | 1015.7 |
| 20260831100602 | 58 | 301 | 0.0 | 2.0 | 0.00 | 0.05 | 0.00 | 79 | 1015.6 |
| 20260831100103 | 58 | 298 | 0.0 | 3.0 | 0.00 | 0.05 | 0.00 | 79 | 1015.6 |
| 20260831095601 | 58 | 299 | 0.0 | 4.0 | 0.00 | 0.05 | 0.00 | 79 | 1015.7 |
| 20260831095104 | 58 | 289 | 0.0 | 4.0 | 0.00 | 0.05 | 0.00 | 78 | 1015.8 |
| 20260831094603 | 58 | 295 | 0.0 | 4.0 | 0.00 | 0.05 | 0.00 | 78 | 1015.8 |
| 20260831094102 | 58 | 297 | 0.0 | 4.0 | 0.00 | 0.05 | 0.00 | 79 | 1015.8 |
| 20260831093602 | 58 | 286 | 1.0 | 5.0 | 0.00 | 0.05 | 0.00 | 79 | 1015.8 |
| 20260831093103 | 58 | 290 | 0.0 | 5.0 | 0.00 | 0.05 | 0.00 | 79 | 1015.9 |
| 20260831092604 | 58 | 293 | 0.0 | 2.0 | 0.00 | 0.05 | 0.00 | 79 | 1015.9 |
| 20260831092103 | 58 | 293 | 0.0 | 5.0 | 0.00 | 0.05 | 0.00 | 79 | 1015.8 |
| 20260831091602 | 58 | 294 | 0.0 | 5.0 | 0.00 | 0.05 | 0.00 | 79 | 1015.8 |
| 20260831091103 | 58 | 294 | 1.0 | 6.0 | 0.00 | 0.05 | 0.00 | 80 | 1015.8 |
| 20260831090602 | 58 | 288 | 1.0 | 9.0 | 0.00 | 0.05 | 0.00 | 80 | 1015.8 |
| 20260831090104 | 58 | 280 | 1.0 | 9.0 | 0.00 | 0.05 | 0.00 | 80 | 1015.7 |
| 20260831085605 | 58 | 291 | 1.0 | 7.0 | 0.00 | 0.05 | 0.00 | 80 | 1015.8 |
| 20260831085426 | 58 | 294 | 1.0 | 7.0 | 0.00 | 0.05 | 0.00 | 80 | 1015.8 |
| 20260831084604 | 58 | 298 | 1.0 | 4.0 | 0.00 | 0.05 | 0.00 | 81 | 1015.9 |
| 20260831084104 | 58 | 285 | 1.0 | 6.0 | 0.00 | 0.05 | 0.00 | 80 | 1015.9 |
| 20260831083604 | 58 | 276 | 1.0 | 9.0 | 0.00 | 0.05 | 0.00 | 80 | 1016.1 |
| 20260831083106 | 58 | 275 | 1.0 | 9.0 | 0.00 | 0.05 | 0.00 | 80 | 1015.8 |
| 20260831082107 | 58 | 282 | 1.0 | 7.0 | 0.00 | 0.05 | 0.00 | 80 | 1015.8 |
| 20260831081926 | 58 | 282 | 0.0 | 5.0 | 0.00 | 0.05 | 0.00 | 80 | 1015.7 |
| 20260831081105 | 58 | 283 | 1.0 | 5.0 | 0.00 | 0.05 | 0.00 | 79 | 1015.8 |
| 20260831080923 | 58 | 283 | 1.0 | 6.0 | 0.00 | 0.05 | 0.00 | 79 | 1015.8 |
| 20260831075604 | 58 | 277 | 1.0 | 10.0 | 0.00 | 0.05 | 0.00 | 79 | 1015.8 |
| 20260831075101 | 58 | 278 | 1.0 | 10.0 | 0.00 | 0.05 | 0.00 | 78 | 1015.8 |
| 20260831074600 | 59 | 275 | 1.0 | 10.0 | 0.00 | 0.05 | 0.00 | 78 | 1015.9 |
| 20260831074103 | 59 | 271 | 1.0 | 10.0 | 0.00 | 0.05 | 0.00 | 79 | 1015.9 |
| 20260831073601 | 59 | 285 | 1.0 | 7.0 | 0.00 | 0.05 | 0.00 | 78 | 1016.1 |
| 20260831073418 | 59 | 279 | 1.0 | 7.0 | 0.00 | 0.05 | 0.00 | 78 | 1015.8 |
| 20260831072602 | 59 | 285 | 0.0 | 4.0 | 0.00 | 0.05 | 0.00 | 78 | 1015.9 |
| 20260831072102 | 59 | 287 | 0.0 | 6.0 | 0.00 | 0.05 | 0.00 | 78 | 1015.9 |
| 20260831071601 | 59 | 285 | 1.0 | 6.0 | 0.00 | 0.05 | 0.00 | 78 | 1015.8 |
| 20260831071100 | 59 | 288 | 1.0 | 8.0 | 0.00 | 0.05 | 0.00 | 79 | 1015.9 |
| 20260831070605 | 59 | 300 | 2.0 | 8.0 | 0.00 | 0.05 | 0.00 | 79 | 1015.8 |
| 20260831070255 | 59 | 284 | 1.0 | 8.0 | 0.00 | 0.05 | 0.05 | 79 | 1016.1 |
| 20260831070214 | 59 | 285 | 1.0 | 8.0 | 0.00 | 0.05 | 0.00 | 80 | 1015.9 |
| 20260831065104 | 59 | 282 | 2.0 | 9.0 | 0.00 | 0.05 | 0.05 | 79 | 1016.2 |
| 20260831064605 | 59 | 274 | 1.0 | 9.0 | 0.00 | 0.05 | 0.05 | 79 | 1015.9 |
| 20260831064110 | 59 | 320 | 1.0 | 6.0 | 0.00 | 0.05 | 0.05 | 79 | 1015.9 |
| 20260831063603 | 59 | 350 | 1.0 | 8.0 | 0.00 | 0.05 | 0.05 | 79 | 1016.1 |
| 20260831063101 | 59 | 280 | 1.0 | 8.0 | 0.00 | 0.05 | 0.05 | 78 | 1016.1 |
| 20260831062601 | 59 | 283 | 1.0 | 8.0 | 0.00 | 0.05 | 0.05 | 78 | 1016.1 |
| 20260831062102 | 59 | 294 | 1.0 | 8.0 | 0.00 | 0.05 | 0.05 | 78 | 1015.9 |
| 20260831061616 | 59 | 299 | 1.0 | 8.0 | 0.00 | 0.05 | 0.05 | 77 | 1016.1 |
| 20260831061612 | 59 | 312 | 1.0 | 8.0 | 0.00 | 0.05 | 0.05 | 78 | 1016.1 |
| 20260831061604 | 59 | 282 | 1.0 | 8.0 | 0.00 | 0.05 | 0.05 | 78 | 1015.9 |
| 20260831055558 | 59 | 291 | 1.0 | 8.0 | 0.00 | 0.05 | 0.05 | 78 | 1015.9 |
| 20260831055058 | 59 | 299 | 1.0 | 5.0 | 0.00 | 0.05 | 0.05 | 78 | 1015.9 |
| 20260831054559 | 59 | 287 | 0.0 | 5.0 | 0.00 | 0.05 | 0.05 | 78 | 1016.1 |
| 20260831054058 | 59 | 297 | 1.0 | 8.0 | 0.00 | 0.05 | 0.05 | 78 | 1015.9 |
| 20260831053741 | 59 | 293 | 1.0 | 8.0 | 0.00 | 0.05 | 0.05 | 78 | 1016.1 |
| 20260831053700 | 59 | 310 | 1.0 | 8.0 | 0.00 | 0.05 | 0.05 | 78 | 1015.9 |
| 20260831052918 | 59 | 301 | 2.0 | 8.0 | 0.00 | 0.05 | 0.05 | 78 | 1015.9 |
| 20260831052418 | 59 | 292 | 1.0 | 8.0 | 0.00 | 0.05 | 0.05 | 78 | 1015.9 |
| 20260831051740 | 59 | 314 | 0.0 | 3.0 | 0.00 | 0.05 | 0.05 | 78 | 1015.9 |
| 20260831051657 | 59 | 312 | 1.0 | 5.0 | 0.00 | 0.05 | 0.05 | 78 | 1015.9 |
| 20260831050940 | 59 | 314 | 0.0 | 3.0 | 0.00 | 0.05 | 0.05 | 78 | 1016.1 |
| 20260831050057 | 59 | 314 | 0.0 | 2.0 | 0.00 | 0.05 | 0.05 | 78 | 1016.1 |
| 20260831045920 | 59 | 314 | 0.0 | 1.0 | 0.00 | 0.05 | 0.05 | 78 | 1016.1 |
| 20260831045055 | 59 | 315 | 0.0 | 1.0 | 0.00 | 0.05 | 0.05 | 78 | 1016.1 |
| 20260831044553 | 59 | 315 | 0.0 | 2.0 | 0.00 | 0.05 | 0.05 | 79 | 1016.1 |
| 20260831044052 | 59 | 315 | 0.0 | 2.0 | 0.00 | 0.05 | 0.05 | 79 | 1016.1 |
| 20260831043554 | 59 | 314 | 0.0 | 3.0 | 0.00 | 0.05 | 0.05 | 79 | 1016.1 |
| 20260831043053 | 59 | 315 | 0.0 | 4.0 | 0.00 | 0.05 | 0.05 | 79 | 1016.1 |
| 20260831042553 | 59 | 315 | 1.0 | 4.0 | 0.00 | 0.05 | 0.05 | 79 | 1015.9 |
| 20260831042053 | 59 | 328 | 1.0 | 4.0 | 0.00 | 0.05 | 0.05 | 79 | 1015.9 |
| 20260831041552 | 59 | 335 | 0.0 | 4.0 | 0.00 | 0.05 | 0.05 | 79 | 1015.9 |
| 20260831041052 | 59 | 297 | 1.0 | 6.0 | 0.00 | 0.05 | 0.05 | 79 | 1015.9 |
| 20260831040900 | 59 | 299 | 1.0 | 6.0 | 0.00 | 0.05 | 0.05 | 79 | 1015.9 |
| 20260831040052 | 59 | 282 | 1.0 | 4.0 | 0.00 | 0.05 | 0.05 | 79 | 1015.8 |
| 20260831035550 | 59 | 293 | 0.0 | 4.0 | 0.00 | 0.05 | 0.05 | 79 | 1015.8 |
| 20260831035050 | 59 | 287 | 0.0 | 5.0 | 0.00 | 0.05 | 0.05 | 79 | 1015.8 |
| 20260831034549 | 59 | 296 | 0.0 | 5.0 | 0.00 | 0.05 | 0.05 | 79 | 1015.8 |
| 20260831034143 | 59 | 347 | 0.0 | 5.0 | 0.00 | 0.05 | 0.05 | 79 | 1015.7 |
| 20260831033046 | 59 | 296 | 1.0 | 8.0 | 0.00 | 0.05 | 0.05 | 78 | 1015.7 |
| 20260831032546 | 59 | 302 | 1.0 | 10.0 | 0.00 | 0.05 | 0.05 | 78 | 1015.6 |
| 20260831032043 | 59 | 282 | 1.0 | 10.0 | 0.00 | 0.05 | 0.05 | 80 | 1015.7 |
| 20260831031900 | 59 | 289 | 1.0 | 8.0 | 0.00 | 0.05 | 0.05 | 78 | 1015.5 |
| 20260831031043 | 59 | 278 | 1.0 | 8.0 | 0.00 | 0.05 | 0.05 | 77 | 1015.6 |
| 20260831030541 | 59 | 290 | 1.0 | 10.0 | 0.00 | 0.05 | 0.05 | 77 | 1015.6 |
| 20260831030042 | 59 | 291 | 1.0 | 10.0 | 0.00 | 0.05 | 0.05 | 77 | 1015.5 |
| 20260831025724 | 59 | 279 | 1.0 | 7.0 | 0.00 | 0.05 | 0.05 | 76 | 1015.5 |
| 20260831025640 | 59 | 300 | 0.0 | 6.0 | 0.00 | 0.05 | 0.05 | 77 | 1015.5 |
| 20260831024542 | 59 | 294 | 1.0 | 7.0 | 0.00 | 0.05 | 0.05 | 76 | 1015.4 |
| 20260831024038 | 59 | 286 | 1.0 | 8.0 | 0.00 | 0.05 | 0.05 | 76 | 1015.5 |
| 20260831023541 | 59 | 271 | 1.0 | 8.0 | 0.00 | 0.05 | 0.05 | 76 | 1015.4 |
| 20260831023038 | 59 | 299 | 1.0 | 6.0 | 0.00 | 0.05 | 0.05 | 75 | 1015.3 |
| 20260831022536 | 59 | 299 | 1.0 | 6.0 | 0.00 | 0.05 | 0.05 | 75 | 1015.3 |
| 20260831022035 | 59 | 299 | 1.0 | 6.0 | 0.00 | 0.05 | 0.05 | 75 | 1015.1 |
| 20260831021536 | 59 | 303 | 1.0 | 6.0 | 0.00 | 0.05 | 0.05 | 74 | 1015.1 |
| 20260831021208 | 60 | 295 | 1.0 | 9.0 | 0.00 | 0.05 | 0.05 | 74 | 1015.2 |
| 20260831021127 | 60 | 276 | 1.0 | 9.0 | 0.00 | 0.05 | 0.05 | 74 | 1015.2 |
| 20260831020029 | 60 | 308 | 1.0 | 8.0 | 0.00 | 0.05 | 0.05 | 74 | 1015.2 |
| 20260831015529 | 60 | 307 | 1.0 | 8.0 | 0.00 | 0.05 | 0.05 | 74 | 1015.2 |
| 20260831015039 | 60 | 308 | 1.0 | 5.0 | 0.00 | 0.05 | 0.05 | 73 | 1015.4 |
| 20260831015031 | 60 | 305 | 1.0 | 6.0 | 0.00 | 0.05 | 0.05 | 75 | 1015.3 |
| 20260831015026 | 60 | 283 | 1.0 | 6.0 | 0.00 | 0.05 | 0.05 | 74 | 1015.3 |
| 20260831013531 | 60 | 305 | 1.0 | 8.0 | 0.00 | 0.05 | 0.05 | 73 | 1015.3 |
| 20260831013029 | 61 | 307 | 1.0 | 8.0 | 0.00 | 0.05 | 0.05 | 72 | 1015.3 |
| 20260831012530 | 61 | 280 | 1.0 | 6.0 | 0.00 | 0.05 | 0.05 | 72 | 1015.3 |
| 20260831012028 | 61 | 272 | 1.0 | 6.0 | 0.00 | 0.05 | 0.05 | 72 | 1015.3 |
| 20260831011529 | 61 | 275 | 0.0 | 4.0 | 0.00 | 0.05 | 0.05 | 71 | 1015.3 |
| 20260831011032 | 62 | 286 | 0.0 | 4.0 | 0.00 | 0.05 | 0.05 | 71 | 1015.4 |
| 20260831010535 | 62 | 284 | 0.0 | 4.0 | 0.00 | 0.05 | 0.05 | 71 | 1015.4 |
| 20260831010034 | 62 | 283 | 0.0 | 4.0 | 0.00 | 0.05 | 0.05 | 69 | 1015.4 |
| 20260831005532 | 62 | 273 | 0.0 | 4.0 | 0.00 | 0.05 | 0.05 | 69 | 1015.4 |
| 20260831005034 | 62 | 270 | 0.0 | 4.0 | 0.00 | 0.05 | 0.05 | 68 | 1015.3 |
| 20260831004534 | 63 | 270 | 1.0 | 4.0 | 0.00 | 0.05 | 0.05 | 67 | 1015.3 |
| 20260831004035 | 63 | 290 | 0.0 | 4.0 | 0.00 | 0.05 | 0.05 | 67 | 1015.3 |
| 20260831003529 | 64 | 291 | 0.0 | 3.0 | 0.00 | 0.05 | 0.05 | 67 | 1015.2 |
| 20260831003029 | 64 | 290 | 1.0 | 5.0 | 0.00 | 0.05 | 0.05 | 67 | 1015.2 |
| 20260831002531 | 64 | 289 | 0.0 | 5.0 | 0.00 | 0.05 | 0.05 | 67 | 1015.2 |
| 20260831002029 | 64 | 297 | 0.0 | 5.0 | 0.00 | 0.05 | 0.05 | 66 | 1015.2 |
| 20260831001530 | 64 | 294 | 0.0 | 5.0 | 0.00 | 0.05 | 0.05 | 66 | 1015.2 |
| 20260831001031 | 64 | 228 | 1.0 | 7.0 | 0.00 | 0.05 | 0.05 | 65 | 1015.2 |
| 20260831000529 | 64 | 216 | 0.0 | 7.0 | 0.00 | 0.05 | 0.05 | 65 | 1015.2 |
| 20260831000031 | 65 | 283 | 0.0 | 4.0 | 0.00 | 0.05 | 0.05 | 63 | 1015.2 |
| 20260830235529 | 65 | 283 | 0.0 | 6.0 | 0.00 | 0.05 | 0.05 | 63 | 1015.2 |
| 20260830235031 | 65 | 283 | 1.0 | 6.0 | 0.00 | 0.05 | 0.05 | 62 | 1015.2 |
| 20260830234528 | 65 | 235 | 0.0 | 2.0 | 0.00 | 0.05 | 0.05 | 62 | 1015.3 |
| 20260830234355 | 65 | 260 | 1.0 | 4.0 | 0.00 | 0.05 | 0.05 | 62 | 1015.3 |
| 20260830233529 | 65 | 258 | 1.0 | 6.0 | 0.00 | 0.05 | 0.05 | 63 | 1015.4 |
| 20260830233030 | 65 | 269 | 0.0 | 6.0 | 0.00 | 0.05 | 0.05 | 64 | 1015.4 |
| 20260830232528 | 65 | 236 | 1.0 | 5.0 | 0.00 | 0.05 | 0.05 | 63 | 1015.4 |
| 20260830232027 | 65 | 316 | 0.0 | 5.0 | 0.00 | 0.05 | 0.05 | 62 | 1015.4 |
| 20260830231527 | 65 | 318 | 0.0 | 3.0 | 0.00 | 0.05 | 0.05 | 63 | 1015.4 |
| 20260830231343 | 64 | 318 | 0.0 | 3.0 | 0.00 | 0.05 | 0.05 | 64 | 1015.4 |
| 20260830230524 | 64 | 319 | 0.0 | 3.0 | 0.00 | 0.05 | 0.05 | 63 | 1015.5 |
| 20260830230022 | 64 | 320 | 0.0 | 3.0 | 0.00 | 0.05 | 0.05 | 64 | 1015.6 |
| 20260830225519 | 64 | 320 | 0.0 | 3.0 | 0.00 | 0.05 | 0.05 | 64 | 1015.7 |
| 20260830225013 | 64 | 321 | 0.0 | 3.0 | 0.00 | 0.05 | 0.05 | 65 | 1015.6 |
| 20260830224508 | 64 | 321 | 0.0 | 4.0 | 0.00 | 0.05 | 0.05 | 64 | 1015.5 |
| 20260830224006 | 64 | 321 | 0.0 | 4.0 | 0.00 | 0.05 | 0.05 | 63 | 1015.7 |
| 20260830223504 | 64 | 321 | 0.0 | 1.0 | 0.00 | 0.05 | 0.05 | 64 | 1015.7 |
| 20260830223316 | 64 | 321 | 0.0 | 1.0 | 0.00 | 0.05 | 0.05 | 65 | 1015.6 |
| 20260830222505 | 63 | 321 | 0.0 | 1.0 | 0.00 | 0.05 | 0.05 | 66 | 1015.7 |
| 20260830222003 | 63 | 321 | 0.0 | 0.0 | 0.00 | 0.05 | 0.05 | 66 | 1015.7 |
| 20260830221506 | 63 | 321 | 0.0 | 1.0 | 0.00 | 0.05 | 0.05 | 66 | 1015.7 |
| 20260830221004 | 63 | 321 | 0.0 | 1.0 | 0.00 | 0.05 | 0.05 | 66 | 1015.7 |
| 20260830220504 | 63 | 321 | 0.0 | 1.0 | 0.00 | 0.05 | 0.05 | 65 | 1015.8 |
| 20260830220005 | 63 | 321 | 0.0 | 2.0 | 0.00 | 0.05 | 0.05 | 64 | 1015.7 |
| 20260830215504 | 63 | 321 | 0.0 | 4.0 | 0.00 | 0.05 | 0.05 | 65 | 1015.8 |
| 20260830215332 | 64 | 322 | 0.0 | 4.0 | 0.00 | 0.05 | 0.05 | 63 | 1015.9 |
| 20260830214504 | 62 | 328 | 0.0 | 4.0 | 0.00 | 0.05 | 0.05 | 67 | 1015.8 |
| 20260830214005 | 62 | 328 | 0.0 | 4.0 | 0.00 | 0.05 | 0.05 | 68 | 1015.8 |
| 20260830213825 | 62 | 329 | 0.0 | 3.0 | 0.00 | 0.05 | 0.05 | 66 | 1015.8 |
| 20260830213001 | 62 | 329 | 0.0 | 3.0 | 0.00 | 0.05 | 0.05 | 68 | 1015.7 |
| 20260830212818 | 62 | 329 | 0.0 | 3.0 | 0.00 | 0.05 | 0.05 | 68 | 1015.7 |
| 20260830212137 | 61 | 329 | 0.0 | 2.0 | 0.00 | 0.05 | 0.05 | 69 | 1015.7 |
| 20260830212058 | 61 | 329 | 0.0 | 3.0 | 0.00 | 0.05 | 0.05 | 71 | 1015.8 |
| 20260830210954 | 61 | 330 | 0.0 | 1.0 | 0.00 | 0.05 | 0.05 | 70 | 1015.6 |